owner,sensor,date,latitude,longitude,vertical_datum,wind_speed,wind_to_direction,wind_speed_of_gust,qcFlag 
TABS,ioos:station:wmo:42045:1,2010-07-01T00:00:00Z,26.2168,-96.4998,4.0,15.23249487,81.88545405,18.39,'11111222,11111222,11111222' 
TABS,ioos:station:wmo:42045:1,2010-07-01T00:30:00Z,26.2168,-96.4998,4.0,14.50806672,85.33433821,17.11,'11111222,11111222,11111222' 
TABS,ioos:station:wmo:42045:1,2010-07-01T01:00:00Z,26.2168,-96.4998,4.0,13.20297315,108.9156382,16.39,'11111222,11111222,11111222' 
TABS,ioos:station:wmo:42045:1,2010-07-01T01:30:00Z,26.2168,-96.4998,4.0,13.71576101,97.12023923,16.44,'11111222,11111222,11111222' 
TABS,ioos:station:wmo:42045:1,2010-07-01T02:00:00Z,26.2168,-96.4998,4.0,13.86264405,96.62814626,18.7,'11111222,11111222,11111222' 
TABS,ioos:station:wmo:42045:1,2010-07-01T02:30:00Z,26.2168,-96.4998,4.0,14.6097399,105.7680106,16.71,'11111222,11111222,11111222' 
TABS,ioos:station:wmo:42045:1,2010-07-01T03:00:00Z,26.2168,-96.4998,4.0,13.44101931,107.6265007,16.62,'11111222,11111222,11111222' 
TABS,ioos:station:wmo:42045:1,2010-07-01T03:30:00Z,26.2168,-96.4998,4.0,13.06487275,106.4517946,17.48,'11111222,11111222,11111222' 
TABS,ioos:station:wmo:42045:1,2010-07-01T04:00:00Z,26.2168,-96.4998,4.0,14.07270408,108.9503298,16.37,'11111222,11111222,11111222' 
TABS,ioos:station:wmo:42045:1,2010-07-01T04:30:00Z,26.2168,-96.4998,4.0,13.29998872,99.69643494,15.54,'11111222,11111222,11111222' 
TABS,ioos:station:wmo:42045:1,2010-07-01T05:00:00Z,26.2168,-96.4998,4.0,12.94261952,113.93139,15.5,'11111222,11111222,11111222' 
TABS,ioos:station:wmo:42045:1,2010-07-01T05:30:00Z,26.2168,-96.4998,4.0,11.35129949,101.0727513,14.13,'11111222,11111222,11111222' 
TABS,ioos:station:wmo:42045:1,2010-07-01T06:00:00Z,26.2168,-96.4998,4.0,11.70034188,101.137461,13.77,'11111222,11111222,11111222' 
TABS,ioos:station:wmo:42045:1,2010-07-01T06:30:00Z,26.2168,-96.4998,4.0,12.13979407,101.643545,13.99,'11111222,11111222,11111222' 
TABS,ioos:station:wmo:42045:1,2010-07-01T07:00:00Z,26.2168,-96.4998,4.0,11.34534706,101.1815729,13.39,'11111222,11111222,11111222' 
TABS,ioos:station:wmo:42045:1,2010-07-01T07:30:00Z,26.2168,-96.4998,4.0,11.26707149,98.2671448,13.08,'11111222,11111222,11111222' 
TABS,ioos:station:wmo:42045:1,2010-07-01T08:00:00Z,26.2168,-96.4998,4.0,10.1976713,99.42577395,12.52,'11111222,11111222,11111222' 
TABS,ioos:station:wmo:42045:1,2010-07-01T08:30:00Z,26.2168,-96.4998,4.0,10.24346133,100.8605714,12.3,'11111222,11111222,11111222' 
TABS,ioos:station:wmo:42045:1,2010-07-01T09:00:00Z,26.2168,-96.4998,4.0,10.57549053,98.09985669,12.37,'11111222,11111222,11111222' 
TABS,ioos:station:wmo:42045:1,2010-07-01T09:30:00Z,26.2168,-96.4998,4.0,9.808450438,100.6344049,12.07,'11111222,11111222,11111222' 
TABS,ioos:station:wmo:42045:1,2010-07-01T10:00:00Z,26.2168,-96.4998,4.0,9.848537963,105.0667132,12.09,'11111222,11111222,11111222' 
TABS,ioos:station:wmo:42045:1,2010-07-01T10:30:00Z,26.2168,-96.4998,4.0,9.232052859,104.9397987,11.4,'11111222,11111222,11111222' 
TABS,ioos:station:wmo:42045:1,2010-07-01T11:00:00Z,26.2168,-96.4998,4.0,9.066184423,105.4162439,10.47,'11111222,11111222,11111222' 
TABS,ioos:station:wmo:42045:1,2010-07-01T11:30:00Z,26.2168,-96.4998,4.0,8.302011804,104.1538004,10.5,'11111222,11111222,11111222' 
TABS,ioos:station:wmo:42045:1,2010-07-01T12:00:00Z,26.2168,-96.4998,4.0,8.3387589,104.5865729,10.57,'11111222,11111222,11111222' 
TABS,ioos:station:wmo:42045:1,2010-07-01T12:30:00Z,26.2168,-96.4998,4.0,8.675136887,102.7870925,10.32,'11111222,11111222,11111222' 
TABS,ioos:station:wmo:42045:1,2010-07-01T13:00:00Z,26.2168,-96.4998,4.0,8.42525964,101.0169161,9.71,'11111222,11111222,11111222' 
TABS,ioos:station:wmo:42045:1,2010-07-01T13:30:00Z,26.2168,-96.4998,4.0,8.949469258,108.8402361,10.61,'11111222,11111222,11111222' 
TABS,ioos:station:wmo:42045:1,2010-07-01T14:00:00Z,26.2168,-96.4998,4.0,8.274841388,107.0776565,10.38,'11111222,11111222,11111222' 
TABS,ioos:station:wmo:42045:1,2010-07-01T14:30:00Z,26.2168,-96.4998,4.0,8.021577152,113.4334282,10.27,'11111222,11111222,11111222' 
TABS,ioos:station:wmo:42045:1,2010-07-01T15:00:00Z,26.2168,-96.4998,4.0,8.407098191,110.3968872,9.95,'11111222,11111222,11111222' 
TABS,ioos:station:wmo:42045:1,2010-07-01T15:30:00Z,26.2168,-96.4998,4.0,8.754113319,105.6401098,10.64,'11111222,11111222,11111222' 
TABS,ioos:station:wmo:42045:1,2010-07-01T16:00:00Z,26.2168,-96.4998,4.0,8.336935888,101.4855424,9.95,'11111222,11111222,11111222' 
TABS,ioos:station:wmo:42045:1,2010-07-01T16:30:00Z,26.2168,-96.4998,4.0,8.557458735,96.64374657,10.9,'11111222,11111222,11111222' 
TABS,ioos:station:wmo:42045:1,2010-07-01T17:00:00Z,26.2168,-96.4998,4.0,7.957593857,104.0366316,9.58,'11111222,11111222,11111222' 
TABS,ioos:station:wmo:42045:1,2010-07-01T17:30:00Z,26.2168,-96.4998,4.0,7.851878756,97.75899591,9.5,'11111222,11111222,11111222' 
TABS,ioos:station:wmo:42045:1,2010-07-01T18:00:00Z,26.2168,-96.4998,4.0,8.057108663,96.19924374,9.44,'11111222,11111222,11111222' 
TABS,ioos:station:wmo:42045:1,2010-07-01T18:30:00Z,26.2168,-96.4998,4.0,8.215138465,96.00941282,9.95,'11111222,11111222,11111222' 
TABS,ioos:station:wmo:42045:1,2010-07-01T19:00:00Z,26.2168,-96.4998,4.0,7.89421307,98.37684733,9.86,'11111222,11111222,11111222' 
TABS,ioos:station:wmo:42045:1,2010-07-01T19:30:00Z,26.2168,-96.4998,4.0,8.001312392,99.56867132,9.64,'11111222,11111222,11111222' 
TABS,ioos:station:wmo:42045:1,2010-07-01T20:00:00Z,26.2168,-96.4998,4.0,7.225316602,105.5754326,8.51,'11111222,11111222,11111222' 
TABS,ioos:station:wmo:42045:1,2010-07-01T20:30:00Z,26.2168,-96.4998,4.0,8.089802223,106.6657073,9.29,'11111222,11111222,11111222' 
TABS,ioos:station:wmo:42045:1,2010-07-01T21:00:00Z,26.2168,-96.4998,4.0,8.912014363,106.157723,10.25,'11111222,11111222,11111222' 
TABS,ioos:station:wmo:42045:1,2010-07-01T21:30:00Z,26.2168,-96.4998,4.0,8.707588644,102.5363363,9.96,'11111222,11111222,11111222' 
TABS,ioos:station:wmo:42045:1,2010-07-01T22:00:00Z,26.2168,-96.4998,4.0,8.868427144,101.5130528,10.62,'11111222,11111222,11111222' 
TABS,ioos:station:wmo:42045:1,2010-07-01T22:30:00Z,26.2168,-96.4998,4.0,9.390915823,107.2197375,11.17,'11111222,11111222,11111222' 
TABS,ioos:station:wmo:42045:1,2010-07-01T23:00:00Z,26.2168,-96.4998,4.0,8.917847274,108.8416719,11.18,'11111222,11111222,11111222' 
TABS,ioos:station:wmo:42045:1,2010-07-01T23:30:00Z,26.2168,-96.4998,4.0,8.909725024,106.5641174,11.13,'11111222,11111222,11111222' 
TABS,ioos:station:wmo:42045:1,2010-07-02T00:00:00Z,26.2168,-96.4998,4.0,9.210776297,107.1762844,10.32,'11111222,11111222,11111222' 
TABS,ioos:station:wmo:42045:1,2010-07-02T00:30:00Z,26.2168,-96.4998,4.0,9.465500515,109.1818698,11.31,'11111222,11111222,11111222' 
TABS,ioos:station:wmo:42045:1,2010-07-02T01:00:00Z,26.2168,-96.4998,4.0,9.183332728,108.6720841,11.41,'11111222,11111222,11111222' 
TABS,ioos:station:wmo:42045:1,2010-07-02T01:30:00Z,26.2168,-96.4998,4.0,8.933448382,108.5367347,10.24,'11111222,11111222,11111222' 
TABS,ioos:station:wmo:42045:1,2010-07-02T02:00:00Z,26.2168,-96.4998,4.0,8.167135361,110.4989418,9.83,'11111222,11111222,11111222' 
TABS,ioos:station:wmo:42045:1,2010-07-02T02:30:00Z,26.2168,-96.4998,4.0,9.164594917,108.9098139,10.97,'11111222,11111222,11111222' 
TABS,ioos:station:wmo:42045:1,2010-07-02T03:00:00Z,26.2168,-96.4998,4.0,8.600052325,112.4203653,9.96,'11111222,11111222,11111222' 
TABS,ioos:station:wmo:42045:1,2010-07-02T03:30:00Z,26.2168,-96.4998,4.0,8.767331407,113.173214,10.58,'11111222,11111222,11111222' 
TABS,ioos:station:wmo:42045:1,2010-07-02T04:00:00Z,26.2168,-96.4998,4.0,8.179101418,113.3369301,10.38,'11111222,11111222,11111222' 
TABS,ioos:station:wmo:42045:1,2010-07-02T04:30:00Z,26.2168,-96.4998,4.0,8.236419125,110.9879389,9.7,'11111222,11111222,11111222' 
TABS,ioos:station:wmo:42045:1,2010-07-02T05:00:00Z,26.2168,-96.4998,4.0,8.210054811,112.410871,9.56,'11111222,11111222,11111222' 
TABS,ioos:station:wmo:42045:1,2010-07-02T05:30:00Z,26.2168,-96.4998,4.0,8.173940298,112.8952241,9.96,'11111222,11111222,11111222' 
TABS,ioos:station:wmo:42045:1,2010-07-02T06:00:00Z,26.2168,-96.4998,4.0,9.053137578,110.4971595,10.83,'11111222,11111222,11111222' 
TABS,ioos:station:wmo:42045:1,2010-07-02T06:30:00Z,26.2168,-96.4998,4.0,8.534992677,108.3716412,10.42,'11111222,11111222,11111222' 
TABS,ioos:station:wmo:42045:1,2010-07-02T07:00:00Z,26.2168,-96.4998,4.0,8.538676712,109.0719187,10.89,'11111222,11111222,11111222' 
TABS,ioos:station:wmo:42045:1,2010-07-02T07:30:00Z,26.2168,-96.4998,4.0,8.475806746,106.6607772,9.96,'11111222,11111222,11111222' 
TABS,ioos:station:wmo:42045:1,2010-07-02T08:00:00Z,26.2168,-96.4998,4.0,8.135318064,111.8671705,9.39,'11111222,11111222,11111222' 
TABS,ioos:station:wmo:42045:1,2010-07-02T08:30:00Z,26.2168,-96.4998,4.0,7.750928977,111.7331455,9.09,'11111222,11111222,11111222' 
TABS,ioos:station:wmo:42045:1,2010-07-02T09:00:00Z,26.2168,-96.4998,4.0,6.956385556,111.3276405,8.14,'11111222,11111222,11111222' 
TABS,ioos:station:wmo:42045:1,2010-07-02T09:30:00Z,26.2168,-96.4998,4.0,7.634055279,108.9574763,8.95,'11111222,11111222,11111222' 
TABS,ioos:station:wmo:42045:1,2010-07-02T10:00:00Z,26.2168,-96.4998,4.0,7.428223206,108.6060667,8.55,'11111222,11111222,11111222' 
TABS,ioos:station:wmo:42045:1,2010-07-02T10:30:00Z,26.2168,-96.4998,4.0,7.273692322,104.2467847,8.99,'11111222,11111222,11111222' 
TABS,ioos:station:wmo:42045:1,2010-07-02T11:00:00Z,26.2168,-96.4998,4.0,6.909500706,105.4445978,8.3,'11111222,11111222,11111222' 
TABS,ioos:station:wmo:42045:1,2010-07-02T11:30:00Z,26.2168,-96.4998,4.0,7.414822992,105.6485836,9.47,'11111222,11111222,11111222' 
TABS,ioos:station:wmo:42045:1,2010-07-02T12:00:00Z,26.2168,-96.4998,4.0,7.984891984,108.7756928,9.49,'11111222,11111222,11111222' 
TABS,ioos:station:wmo:42045:1,2010-07-02T12:30:00Z,26.2168,-96.4998,4.0,8.197713096,112.7492649,9.61,'11111222,11111222,11111222' 
TABS,ioos:station:wmo:42045:1,2010-07-02T13:00:00Z,26.2168,-96.4998,4.0,8.823525373,116.5944498,10.25,'11111222,11111222,11111222' 
TABS,ioos:station:wmo:42045:1,2010-07-02T13:30:00Z,26.2168,-96.4998,4.0,8.710970095,119.6554916,10.59,'11111222,11111222,11111222' 
TABS,ioos:station:wmo:42045:1,2010-07-02T14:00:00Z,26.2168,-96.4998,4.0,9.208001955,120.5479212,10.9,'11111222,11111222,11111222' 
TABS,ioos:station:wmo:42045:1,2010-07-02T14:30:00Z,26.2168,-96.4998,4.0,9.001161036,129.4554463,10.69,'11111222,11111222,11111222' 
TABS,ioos:station:wmo:42045:1,2010-07-02T15:00:00Z,26.2168,-96.4998,4.0,8.706560745,130.8086178,10.72,'11111222,11111222,11111222' 
TABS,ioos:station:wmo:42045:1,2010-07-02T15:30:00Z,26.2168,-96.4998,4.0,8.878609125,127.5413829,10.68,'11111222,11111222,11111222' 
TABS,ioos:station:wmo:42045:1,2010-07-02T16:00:00Z,26.2168,-96.4998,4.0,9.333659518,127.9506908,10.98,'11111222,11111222,11111222' 
TABS,ioos:station:wmo:42045:1,2010-07-02T16:30:00Z,26.2168,-96.4998,4.0,8.929328082,127.8584329,10.77,'11111222,11111222,11111222' 
TABS,ioos:station:wmo:42045:1,2010-07-02T17:00:00Z,26.2168,-96.4998,4.0,8.776018459,126.9877483,10.77,'11111222,11111222,11111222' 
TABS,ioos:station:wmo:42045:1,2010-07-02T17:30:00Z,26.2168,-96.4998,4.0,8.93546865,127.909059,9.83,'11111222,11111222,11111222' 
TABS,ioos:station:wmo:42045:1,2010-07-02T18:00:00Z,26.2168,-96.4998,4.0,9.165287775,132.5683714,10.84,'11111222,11111222,11111222' 
TABS,ioos:station:wmo:42045:1,2010-07-02T18:30:00Z,26.2168,-96.4998,4.0,9.377504999,131.7150469,10.57,'11111222,11111222,11111222' 
TABS,ioos:station:wmo:42045:1,2010-07-02T19:00:00Z,26.2168,-96.4998,4.0,9.539313392,134.4481879,11.5,'11111222,11111222,11111222' 
TABS,ioos:station:wmo:42045:1,2010-07-02T19:30:00Z,26.2168,-96.4998,4.0,9.853983966,132.2857448,11.5,'11111222,11111222,11111222' 
TABS,ioos:station:wmo:42045:1,2010-07-02T20:00:00Z,26.2168,-96.4998,4.0,9.300430098,132.4729247,11.46,'11111222,11111222,11111222' 
TABS,ioos:station:wmo:42045:1,2010-07-02T20:30:00Z,26.2168,-96.4998,4.0,9.418842816,128.7076397,11.46,'11111222,11111222,11111222' 
TABS,ioos:station:wmo:42045:1,2010-07-02T21:00:00Z,26.2168,-96.4998,4.0,9.259119829,127.7613436,11.43,'11111222,11111222,11111222' 
TABS,ioos:station:wmo:42045:1,2010-07-02T21:30:00Z,26.2168,-96.4998,4.0,8.838246432,126.4423706,10.0,'11111222,11111222,11111222' 
TABS,ioos:station:wmo:42045:1,2010-07-02T22:00:00Z,26.2168,-96.4998,4.0,9.270539359,130.4943632,10.95,'11111222,11111222,11111222' 
TABS,ioos:station:wmo:42045:1,2010-07-02T22:30:00Z,26.2168,-96.4998,4.0,9.623289458,129.6458131,11.23,'11111222,11111222,11111222' 
TABS,ioos:station:wmo:42045:1,2010-07-02T23:00:00Z,26.2168,-96.4998,4.0,9.036863394,129.9276662,10.58,'11111222,11111222,11111222' 
TABS,ioos:station:wmo:42045:1,2010-07-02T23:30:00Z,26.2168,-96.4998,4.0,9.258001944,126.8330997,10.62,'11111222,11111222,11111222' 
TABS,ioos:station:wmo:42045:1,2010-07-03T00:00:00Z,26.2168,-96.4998,4.0,9.08594519,125.6846265,10.37,'11111222,11111222,11111222' 
TABS,ioos:station:wmo:42045:1,2010-07-03T00:30:00Z,26.2168,-96.4998,4.0,9.101911887,128.9354074,10.34,'11111222,11111222,11111222' 
TABS,ioos:station:wmo:42045:1,2010-07-03T01:00:00Z,26.2168,-96.4998,4.0,9.158738996,124.3670984,10.43,'11111222,11111222,11111222' 
TABS,ioos:station:wmo:42045:1,2010-07-03T01:30:00Z,26.2168,-96.4998,4.0,8.428724696,123.4830226,9.93,'11111222,11111222,11111222' 
TABS,ioos:station:wmo:42045:1,2010-07-03T02:00:00Z,26.2168,-96.4998,4.0,9.218031243,127.019407,10.49,'11111222,11111222,11111222' 
TABS,ioos:station:wmo:42045:1,2010-07-03T02:30:00Z,26.2168,-96.4998,4.0,8.670893841,130.2289247,10.18,'11111222,11111222,11111222' 
TABS,ioos:station:wmo:42045:1,2010-07-03T03:00:00Z,26.2168,-96.4998,4.0,8.748874213,130.8289267,10.45,'11111222,11111222,11111222' 
TABS,ioos:station:wmo:42045:1,2010-07-03T03:30:00Z,26.2168,-96.4998,4.0,8.619443137,129.8229208,11.48,'11111222,11111222,11111222' 
TABS,ioos:station:wmo:42045:1,2010-07-03T04:00:00Z,26.2168,-96.4998,4.0,8.909960718,131.7246472,10.65,'11111222,11111222,11111222' 
TABS,ioos:station:wmo:42045:1,2010-07-03T04:30:00Z,26.2168,-96.4998,4.0,8.831834464,134.7709508,11.08,'11111222,11111222,11111222' 
TABS,ioos:station:wmo:42045:1,2010-07-03T05:00:00Z,26.2168,-96.4998,4.0,8.487590942,133.6636598,10.82,'11111222,11111222,11111222' 
TABS,ioos:station:wmo:42045:1,2010-07-03T05:30:00Z,26.2168,-96.4998,4.0,8.544899063,139.3190093,9.78,'11111222,11111222,11111222' 
TABS,ioos:station:wmo:42045:1,2010-07-03T06:00:00Z,26.2168,-96.4998,4.0,8.493014777,135.7158777,10.19,'11111222,11111222,11111222' 
TABS,ioos:station:wmo:42045:1,2010-07-03T06:30:00Z,26.2168,-96.4998,4.0,8.542891782,138.4168959,9.69,'11111222,11111222,11111222' 
TABS,ioos:station:wmo:42045:1,2010-07-03T07:00:00Z,26.2168,-96.4998,4.0,8.12217951,143.5113297,9.8,'11111222,11111222,11111222' 
TABS,ioos:station:wmo:42045:1,2010-07-03T07:30:00Z,26.2168,-96.4998,4.0,8.160612722,135.6953761,9.75,'11111222,11111222,11111222' 
TABS,ioos:station:wmo:42045:1,2010-07-03T08:00:00Z,26.2168,-96.4998,4.0,8.002630817,132.9241943,9.56,'11111222,11111222,11111222' 
TABS,ioos:station:wmo:42045:1,2010-07-03T08:30:00Z,26.2168,-96.4998,4.0,8.195614681,135.4452255,10.18,'11111222,11111222,11111222' 
TABS,ioos:station:wmo:42045:1,2010-07-03T09:00:00Z,26.2168,-96.4998,4.0,9.220770033,134.7366873,11.22,'11111222,11111222,11111222' 
TABS,ioos:station:wmo:42045:1,2010-07-03T09:30:00Z,26.2168,-96.4998,4.0,8.904835765,133.6807923,10.22,'11111222,11111222,11111222' 
TABS,ioos:station:wmo:42045:1,2010-07-03T10:00:00Z,26.2168,-96.4998,4.0,9.036249222,131.8602851,10.7,'11111222,11111222,11111222' 
TABS,ioos:station:wmo:42045:1,2010-07-03T10:30:00Z,26.2168,-96.4998,4.0,8.552105004,136.5638285,10.13,'11111222,11111222,11111222' 
TABS,ioos:station:wmo:42045:1,2010-07-03T11:00:00Z,26.2168,-96.4998,4.0,8.201249905,139.0049721,10.41,'11111222,11111222,11111222' 
TABS,ioos:station:wmo:42045:1,2010-07-03T11:30:00Z,26.2168,-96.4998,4.0,7.65561232,137.0117205,9.53,'11111222,11111222,11111222' 
TABS,ioos:station:wmo:42045:1,2010-07-03T12:00:00Z,26.2168,-96.4998,4.0,7.990750903,137.4854581,9.39,'11111222,11111222,11111222' 
TABS,ioos:station:wmo:42045:1,2010-07-03T12:30:00Z,26.2168,-96.4998,4.0,7.797448301,137.0790998,10.19,'11111222,11111222,11111222' 
TABS,ioos:station:wmo:42045:1,2010-07-03T13:00:00Z,26.2168,-96.4998,4.0,7.106644778,139.4514793,8.11,'11111222,11111222,11111222' 
TABS,ioos:station:wmo:42045:1,2010-07-03T13:30:00Z,26.2168,-96.4998,4.0,7.636766331,134.8942128,8.93,'11111222,11111222,11111222' 
TABS,ioos:station:wmo:42045:1,2010-07-03T14:00:00Z,26.2168,-96.4998,4.0,7.767013583,129.3053068,9.13,'11111222,11111222,11111222' 
TABS,ioos:station:wmo:42045:1,2010-07-03T14:30:00Z,26.2168,-96.4998,4.0,7.868633935,132.8372997,9.47,'11111222,11111222,11111222' 
TABS,ioos:station:wmo:42045:1,2010-07-03T15:00:00Z,26.2168,-96.4998,4.0,7.425712087,134.0182008,9.12,'11111222,11111222,11111222' 
TABS,ioos:station:wmo:42045:1,2010-07-03T15:30:00Z,26.2168,-96.4998,4.0,7.5093808,127.9690019,8.68,'11111222,11111222,11111222' 
TABS,ioos:station:wmo:42045:1,2010-07-03T16:00:00Z,26.2168,-96.4998,4.0,7.657630182,128.0524982,8.85,'11111222,11111222,11111222' 
TABS,ioos:station:wmo:42045:1,2010-07-03T16:30:00Z,26.2168,-96.4998,4.0,8.118977768,125.9810143,9.87,'11111222,11111222,11111222' 
TABS,ioos:station:wmo:42045:1,2010-07-03T17:00:00Z,26.2168,-96.4998,4.0,7.642205179,127.290083,8.89,'11111222,11111222,11111222' 
TABS,ioos:station:wmo:42045:1,2010-07-03T17:30:00Z,26.2168,-96.4998,4.0,7.305504774,123.3858799,8.69,'11111222,11111222,11111222' 
TABS,ioos:station:wmo:42045:1,2010-07-03T18:00:00Z,26.2168,-96.4998,4.0,7.708242342,122.9276124,9.24,'11111222,11111222,11111222' 
TABS,ioos:station:wmo:42045:1,2010-07-03T18:30:00Z,26.2168,-96.4998,4.0,8.418040152,126.6932685,9.81,'11111222,11111222,11111222' 
TABS,ioos:station:wmo:42045:1,2010-07-03T19:00:00Z,26.2168,-96.4998,4.0,8.121576202,127.9990645,9.8,'11111222,11111222,11111222' 
TABS,ioos:station:wmo:42045:1,2010-07-03T19:30:00Z,26.2168,-96.4998,4.0,7.877182237,134.8974511,9.26,'11111222,11111222,11111222' 
TABS,ioos:station:wmo:42045:1,2010-07-03T20:00:00Z,26.2168,-96.4998,4.0,8.072930075,138.1133278,9.72,'11111222,11111222,11111222' 
TABS,ioos:station:wmo:42045:1,2010-07-03T20:30:00Z,26.2168,-96.4998,4.0,8.403475471,136.5432597,10.37,'11111222,11111222,11111222' 
TABS,ioos:station:wmo:42045:1,2010-07-03T21:00:00Z,26.2168,-96.4998,4.0,8.076657725,139.9222441,9.34,'11111222,11111222,11111222' 
TABS,ioos:station:wmo:42045:1,2010-07-03T21:30:00Z,26.2168,-96.4998,4.0,7.373608343,138.3538626,9.05,'11111222,11111222,11111222' 
TABS,ioos:station:wmo:42045:1,2010-07-03T22:00:00Z,26.2168,-96.4998,4.0,7.302198299,131.7250875,8.39,'11111222,11111222,11111222' 
TABS,ioos:station:wmo:42045:1,2010-07-03T22:30:00Z,26.2168,-96.4998,4.0,7.963322171,128.5252993,9.31,'11111222,11111222,11111222' 
TABS,ioos:station:wmo:42045:1,2010-07-03T23:00:00Z,26.2168,-96.4998,4.0,7.534255106,127.3417282,9.38,'11111222,11111222,11111222' 
TABS,ioos:station:wmo:42045:1,2010-07-03T23:30:00Z,26.2168,-96.4998,4.0,7.716501798,127.5236536,9.41,'11111222,11111222,11111222' 
TABS,ioos:station:wmo:42045:1,2010-07-04T00:00:00Z,26.2168,-96.4998,4.0,7.288484067,127.530581,8.6,'11111222,11111222,11111222' 
TABS,ioos:station:wmo:42045:1,2010-07-04T00:30:00Z,26.2168,-96.4998,4.0,7.374727114,121.4704255,8.57,'11111222,11111222,11111222' 
TABS,ioos:station:wmo:42045:1,2010-07-04T01:00:00Z,26.2168,-96.4998,4.0,7.225738717,122.8546783,8.76,'11111222,11111222,11111222' 
TABS,ioos:station:wmo:42045:1,2010-07-04T01:30:00Z,26.2168,-96.4998,4.0,6.903050051,121.4338476,8.26,'11111222,11111222,11111222' 
TABS,ioos:station:wmo:42045:1,2010-07-04T02:00:00Z,26.2168,-96.4998,4.0,6.492241524,127.3644524,7.8,'11111222,11111222,11111222' 
TABS,ioos:station:wmo:42045:1,2010-07-04T02:30:00Z,26.2168,-96.4998,4.0,7.434083669,128.2268186,8.69,'11111222,11111222,11111222' 
TABS,ioos:station:wmo:42045:1,2010-07-04T03:00:00Z,26.2168,-96.4998,4.0,7.441679918,128.672163,8.67,'11111222,11111222,11111222' 
TABS,ioos:station:wmo:42045:1,2010-07-04T03:30:00Z,26.2168,-96.4998,4.0,7.864966624,128.4439727,8.9,'11111222,11111222,11111222' 
TABS,ioos:station:wmo:42045:1,2010-07-04T04:00:00Z,26.2168,-96.4998,4.0,7.253192401,131.646983,8.52,'11111222,11111222,11111222' 
TABS,ioos:station:wmo:42045:1,2010-07-04T04:30:00Z,26.2168,-96.4998,4.0,8.23495598,138.002753,9.28,'11111222,11111222,11111222' 
TABS,ioos:station:wmo:42045:1,2010-07-04T05:00:00Z,26.2168,-96.4998,4.0,8.130559636,141.6926704,9.42,'11111222,11111222,11111222' 
TABS,ioos:station:wmo:42045:1,2010-07-04T05:30:00Z,26.2168,-96.4998,4.0,7.984234465,144.9965143,9.48,'11111222,11111222,11111222' 
TABS,ioos:station:wmo:42045:1,2010-07-04T06:00:00Z,26.2168,-96.4998,4.0,7.752689856,147.109644,9.53,'11111222,11111222,11111222' 
TABS,ioos:station:wmo:42045:1,2010-07-04T06:30:00Z,26.2168,-96.4998,4.0,8.401547477,147.9370715,10.08,'11111222,11111222,11111222' 
TABS,ioos:station:wmo:42045:1,2010-07-04T07:00:00Z,26.2168,-96.4998,4.0,7.685792087,145.710614,8.87,'11111222,11111222,11111222' 
TABS,ioos:station:wmo:42045:1,2010-07-04T07:30:00Z,26.2168,-96.4998,4.0,8.525643671,147.7455754,9.95,'11111222,11111222,11111222' 
TABS,ioos:station:wmo:42045:1,2010-07-04T08:00:00Z,26.2168,-96.4998,4.0,8.681313265,149.2402634,9.91,'11111222,11111222,11111222' 
TABS,ioos:station:wmo:42045:1,2010-07-04T08:30:00Z,26.2168,-96.4998,4.0,8.212070385,143.3676178,9.93,'11111222,11111222,11111222' 
TABS,ioos:station:wmo:42045:1,2010-07-04T09:00:00Z,26.2168,-96.4998,4.0,8.154808398,144.6341347,9.38,'11111222,11111222,11111222' 
TABS,ioos:station:wmo:42045:1,2010-07-04T09:30:00Z,26.2168,-96.4998,4.0,8.234105902,144.9398662,10.09,'11111222,11111222,11111222' 
TABS,ioos:station:wmo:42045:1,2010-07-04T10:00:00Z,26.2168,-96.4998,4.0,8.17413604,141.3076522,9.95,'11111222,11111222,11111222' 
TABS,ioos:station:wmo:42045:1,2010-07-04T10:30:00Z,26.2168,-96.4998,4.0,7.766009271,143.218932,9.31,'11111222,11111222,11111222' 
TABS,ioos:station:wmo:42045:1,2010-07-04T11:00:00Z,26.2168,-96.4998,4.0,8.062660851,146.5861532,9.35,'11111222,11111222,11111222' 
TABS,ioos:station:wmo:42045:1,2010-07-04T11:30:00Z,26.2168,-96.4998,4.0,7.411916082,151.1183641,8.62,'11111222,11111222,11111222' 
TABS,ioos:station:wmo:42045:1,2010-07-04T12:00:00Z,26.2168,-96.4998,4.0,7.430060565,152.1591297,8.22,'11111222,11111222,11111222' 
TABS,ioos:station:wmo:42045:1,2010-07-04T12:30:00Z,26.2168,-96.4998,4.0,7.13372974,145.7978715,8.6,'11111222,11111222,11111222' 
TABS,ioos:station:wmo:42045:1,2010-07-04T13:00:00Z,26.2168,-96.4998,4.0,7.373038722,150.8626481,8.61,'11111222,11111222,11111222' 
TABS,ioos:station:wmo:42045:1,2010-07-04T13:30:00Z,26.2168,-96.4998,4.0,7.24240982,149.1857687,8.34,'11111222,11111222,11111222' 
TABS,ioos:station:wmo:42045:1,2010-07-04T14:00:00Z,26.2168,-96.4998,4.0,7.407624451,149.7661142,8.8,'11111222,11111222,11111222' 
TABS,ioos:station:wmo:42045:1,2010-07-04T14:30:00Z,26.2168,-96.4998,4.0,7.566009516,143.2212723,9.02,'11111222,11111222,11111222' 
TABS,ioos:station:wmo:42045:1,2010-07-04T15:00:00Z,26.2168,-96.4998,4.0,7.589235798,147.2106274,9.42,'11111222,11111222,11111222' 
TABS,ioos:station:wmo:42045:1,2010-07-04T15:30:00Z,26.2168,-96.4998,4.0,7.548271325,142.644597,9.11,'11111222,11111222,11111222' 
TABS,ioos:station:wmo:42045:1,2010-07-04T16:00:00Z,26.2168,-96.4998,4.0,7.748264322,142.6571365,9.0,'11111222,11111222,11111222' 
TABS,ioos:station:wmo:42045:1,2010-07-04T16:30:00Z,26.2168,-96.4998,4.0,7.292132747,143.4761173,8.68,'11111222,11111222,11111222' 
TABS,ioos:station:wmo:42045:1,2010-07-04T17:00:00Z,26.2168,-96.4998,4.0,7.079413818,133.9129165,8.4,'11111222,11111222,11111222' 
TABS,ioos:station:wmo:42045:1,2010-07-04T17:30:00Z,26.2168,-96.4998,4.0,7.446589824,135.8164378,8.65,'11111222,11111222,11111222' 
TABS,ioos:station:wmo:42045:1,2010-07-04T18:00:00Z,26.2168,-96.4998,4.0,7.080939203,141.4794981,8.61,'11111222,11111222,11111222' 
TABS,ioos:station:wmo:42045:1,2010-07-04T18:30:00Z,26.2168,-96.4998,4.0,7.177165179,134.8309694,8.41,'11111222,11111222,11111222' 